Time,TemperatureF,DewpointF,PressureIn,WindDirection,WindDirectionDegrees,WindSpeedMPH,WindSpeedGustMPH,Humidity,HourlyPrecipIn,Conditions,Clouds,dailyrainin,SoftwareType,DateUTC
2013-04-01 00:00:00,54.7,53.9,29.18,SSW,203,0.0,0.0,97,0.00,CLR,,0.58,WeatherDisplay:10.37,2013-04-01 04:00:00,
2013-04-01 00:05:00,54.7,53.9,29.18,SSW,203,2.3,2.3,97,0.00,CLR,,0.58,WeatherDisplay:10.37,2013-04-01 04:05:00,
2013-04-01 00:10:00,54.8,54.0,29.18,SSW,203,0.0,0.0,97,0.00,CLR,,0.58,WeatherDisplay:10.37,2013-04-01 04:10:00,
2013-04-01 00:13:00,54.8,54.0,29.18,SSW,205,3.5,3.5,97,0.00,CLR,,0.58,WeatherDisplay:10.37,2013-04-01 04:13:00,
2013-04-01 00:18:00,54.8,54.0,29.18,SW,234,2.3,2.3,97,0.00,CLR,,0.58,WeatherDisplay:10.37,2013-04-01 04:18:00,
2013-04-01 00:23:00,54.8,54.0,29.18,SW,236,3.5,3.5,97,0.00,CLR,,0.58,WeatherDisplay:10.37,2013-04-01 04:23:00,
2013-04-01 00:28:00,54.8,54.0,29.18,SW,227,0.0,0.0,97,0.00,CLR,,0.58,WeatherDisplay:10.37,2013-04-01 04:28:00,
2013-04-01 00:33:00,54.8,54.0,29.18,SW,227,4.6,4.6,97,0.00,CLR,,0.58,WeatherDisplay:10.37,2013-04-01 04:33:00,
2013-04-01 00:38:00,54.8,54.0,29.18,SW,224,0.0,0.0,97,0.00,CLR,,0.58,WeatherDisplay:10.37,2013-04-01 04:38:00,
2013-04-01 00:43:00,54.8,54.0,29.18,SW,224,0.0,0.0,97,0.00,CLR,,0.58,WeatherDisplay:10.37,2013-04-01 04:43:00,
2013-04-01 00:48:00,54.8,54.0,29.18,SW,217,1.1,1.1,97,0.00,CLR,,0.58,WeatherDisplay:10.37,2013-04-01 04:48:00,
2013-04-01 00:53:00,54.7,53.9,29.18,SW,217,0.0,0.0,97,0.00,CLR,,0.58,WeatherDisplay:10.37,2013-04-01 04:53:00,
2013-04-01 00:58:00,54.7,53.9,29.18,SW,217,1.1,1.1,97,0.00,CLR,,0.58,WeatherDisplay:10.37,2013-04-01 04:58:00,
2013-04-01 01:03:00,54.7,53.9,29.18,SW,217,3.5,3.5,97,0.00,RA,,0.00,WeatherDisplay:10.37,2013-04-01 05:03:00,
2013-04-01 01:08:00,54.7,53.9,29.18,SW,217,0.0,0.0,97,0.00,RA,,0.00,WeatherDisplay:10.37,2013-04-01 05:08:00,
2013-04-01 01:13:00,54.5,53.7,29.18,SW,217,2.3,2.3,97,0.00,CLR,,0.00,WeatherDisplay:10.37,2013-04-01 05:13:00,
2013-04-01 01:18:00,54.5,53.7,29.18,SW,223,2.3,0.0,97,0.00,CLR,,0.00,WeatherDisplay:10.37,2013-04-01 05:18:00,
2013-04-01 01:23:00,54.7,54.1,29.18,WSW,256,6.0,6.0,98,0.00,CLR,,0.00,WeatherDisplay:10.37,2013-04-01 05:23:00,
2013-04-01 01:28:00,54.8,54.2,29.19,SW,233,3.5,3.5,98,0.00,CLR,,0.00,WeatherDisplay:10.37,2013-04-01 05:28:00,
2013-04-01 01:33:00,54.8,54.2,29.19,SW,215,4.6,4.6,98,0.00,CLR,,0.00,WeatherDisplay:10.37,2013-04-01 05:33:00,
2013-04-01 01:38:00,54.8,54.2,29.19,SW,230,6.9,6.9,98,0.00,CLR,,0.00,WeatherDisplay:10.37,2013-04-01 05:38:00,
2013-04-01 01:43:00,54.8,54.2,29.18,SW,224,1.1,1.1,98,0.00,CLR,,0.00,WeatherDisplay:10.37,2013-04-01 05:43:00,
2013-04-01 01:48:00,54.8,54.2,29.18,SW,224,4.6,4.6,98,0.00,CLR,,0.00,WeatherDisplay:10.37,2013-04-01 05:48:00,
2013-04-01 01:53:00,54.8,54.2,29.18,West,268,2.3,2.3,98,0.00,CLR,,0.00,WeatherDisplay:10.37,2013-04-01 05:53:00,
2013-04-01 01:58:00,54.8,54.2,29.18,SW,230,3.5,3.5,98,0.00,CLR,,0.00,WeatherDisplay:10.37,2013-04-01 05:58:00,
2013-04-01 02:03:00,54.8,54.2,29.18,SW,230,0.0,0.0,98,0.00,CLR,,0.00,WeatherDisplay:10.37,2013-04-01 06:03:00,
2013-04-01 02:08:00,54.8,54.2,29.18,SW,233,3.5,0.0,98,0.00,CLR,,0.00,WeatherDisplay:10.37,2013-04-01 06:08:00,
2013-04-01 02:13:00,54.8,54.2,29.18,SW,222,3.5,3.5,98,0.00,CLR,,0.00,WeatherDisplay:10.37,2013-04-01 06:13:00,
2013-04-01 02:18:00,55.0,54.4,29.18,SW,215,3.5,3.5,98,0.00,CLR,,0.00,WeatherDisplay:10.37,2013-04-01 06:18:00,
2013-04-01 02:23:00,55.0,54.4,29.18,SW,236,4.6,4.6,98,0.00,CLR,,0.00,WeatherDisplay:10.37,2013-04-01 06:23:00,
2013-04-01 02:28:00,55.0,54.4,29.18,SW,232,4.6,4.6,98,0.00,CLR,,0.00,WeatherDisplay:10.37,2013-04-01 06:28:00,
2013-04-01 02:33:00,54.8,54.2,29.18,WSW,250,3.0,3.9,98,0.00,CLR,,0.00,WeatherDisplay:10.37,2013-04-01 06:33:00,
2013-04-01 02:38:00,55.0,54.4,29.18,WSW,239,1.1,3.3,98,0.00,CLR,,0.00,WeatherDisplay:10.37,2013-04-01 06:38:00,
2013-04-01 02:43:00,55.0,54.4,29.18,SW,224,3.5,3.5,98,0.00,CLR,,0.00,WeatherDisplay:10.37,2013-04-01 06:43:00,
2013-04-01 02:49:00,55.0,54.4,29.18,SW,234,4.6,4.6,98,0.00,CLR,,0.00,WeatherDisplay:10.37,2013-04-01 06:49:00,
2013-04-01 02:54:00,55.0,54.4,29.18,SSW,212,3.5,3.5,98,0.00,CLR,,0.00,WeatherDisplay:10.37,2013-04-01 06:54:00,
2013-04-01 02:59:00,55.0,54.2,29.18,SW,234,5.8,5.8,97,0.01,RA,,0.01,WeatherDisplay:10.37,2013-04-01 06:59:00,
2013-04-01 03:04:00,55.0,54.2,29.18,South,188,3.5,3.5,97,0.02,RA,,0.02,WeatherDisplay:10.37,2013-04-01 07:04:00,
2013-04-01 03:09:00,55.0,54.4,29.18,WSW,240,4.6,4.6,98,0.02,RA,,0.02,WeatherDisplay:10.37,2013-04-01 07:09:00,
2013-04-01 03:14:00,55.0,54.4,29.18,SW,217,6.0,6.0,98,0.03,RA,,0.03,WeatherDisplay:10.37,2013-04-01 07:14:00,
2013-04-01 03:19:00,55.0,54.4,29.18,SW,232,4.6,4.6,98,0.04,RA,,0.04,WeatherDisplay:10.37,2013-04-01 07:19:00,
2013-04-01 03:24:00,55.0,54.4,29.18,West,261,4.6,4.6,98,0.05,RA,,0.05,WeatherDisplay:10.37,2013-04-01 07:24:00,
2013-04-01 03:29:00,55.0,54.4,29.18,WSW,239,2.3,2.3,98,0.05,RA,,0.05,WeatherDisplay:10.37,2013-04-01 07:29:00,
2013-04-01 03:34:00,55.0,54.4,29.18,West,261,4.6,4.6,98,0.06,RA,,0.06,WeatherDisplay:10.37,2013-04-01 07:34:00,
2013-04-01 03:39:00,55.0,54.4,29.18,West,261,0.0,0.0,98,0.07,RA,,0.07,WeatherDisplay:10.37,2013-04-01 07:39:00,
2013-04-01 03:44:00,54.8,54.2,29.17,West,261,0.0,0.0,98,0.07,RA,,0.07,WeatherDisplay:10.37,2013-04-01 07:44:00,
2013-04-01 03:49:00,54.8,54.2,29.17,West,261,3.5,3.5,98,0.08,RA,,0.08,WeatherDisplay:10.37,2013-04-01 07:49:00,
2013-04-01 03:54:00,54.8,54.2,29.17,WSW,250,3.5,3.5,98,0.08,RA,,0.08,WeatherDisplay:10.37,2013-04-01 07:54:00,
2013-04-01 03:59:00,54.8,54.2,29.17,WSW,244,3.5,3.5,98,0.08,RA,,0.09,WeatherDisplay:10.37,2013-04-01 07:59:00,
2013-04-01 04:04:00,54.8,54.2,29.17,WSW,244,2.3,2.3,98,0.08,RA,,0.10,WeatherDisplay:10.37,2013-04-01 08:04:00,
2013-04-01 04:09:00,54.8,54.2,29.17,WSW,246,3.5,3.5,98,0.08,RA,,0.10,WeatherDisplay:10.37,2013-04-01 08:09:00,
2013-04-01 04:14:00,54.8,54.2,29.17,WSW,246,3.5,3.5,98,0.07,,,0.10,WeatherDisplay:10.37,2013-04-01 08:14:00,
2013-04-01 04:19:00,54.8,54.2,29.17,WSW,241,3.5,3.5,98,0.07,RA,,0.11,WeatherDisplay:10.37,2013-04-01 08:19:00,
2013-04-01 04:24:00,54.8,54.2,29.17,West,261,3.5,3.5,98,0.06,RA,,0.11,WeatherDisplay:10.37,2013-04-01 08:24:00,
2013-04-01 04:29:00,54.8,54.2,29.17,WSW,256,2.0,2.0,98,0.06,CLR,,0.11,WeatherDisplay:10.37,2013-04-01 08:29:00,
2013-04-01 04:34:00,54.8,54.2,29.17,WSW,256,3.5,3.5,98,0.05,CLR,,0.11,WeatherDisplay:10.37,2013-04-01 08:34:00,
2013-04-01 04:39:00,54.8,54.2,29.17,WSW,256,0.0,0.0,98,0.04,CLR,,0.11,WeatherDisplay:10.37,2013-04-01 08:39:00,
2013-04-01 04:44:00,54.8,54.2,29.17,WSW,256,0.0,0.0,98,0.04,CLR,,0.11,WeatherDisplay:10.37,2013-04-01 08:44:00,
2013-04-01 04:49:00,54.8,54.2,29.17,WSW,256,5.8,5.8,98,0.03,CLR,,0.11,WeatherDisplay:10.37,2013-04-01 08:49:00,
2013-04-01 04:54:00,54.8,54.2,29.17,WSW,256,2.3,2.3,98,0.03,CLR,,0.11,WeatherDisplay:10.37,2013-04-01 08:54:00,
2013-04-01 04:59:00,54.7,54.1,29.17,WSW,256,2.3,2.3,98,0.02,CLR,,0.11,WeatherDisplay:10.37,2013-04-01 08:59:00,
2013-04-01 05:04:00,54.5,53.9,29.17,WSW,256,3.5,3.5,98,0.01,CLR,,0.11,WeatherDisplay:10.37,2013-04-01 09:04:00,
2013-04-01 05:09:00,54.4,53.8,29.17,WSW,256,0.0,0.0,98,0.01,CLR,,0.11,WeatherDisplay:10.37,2013-04-01 09:09:00,
2013-04-01 05:14:00,54.4,53.8,29.17,WSW,256,0.0,0.0,98,0.01,CLR,,0.11,WeatherDisplay:10.37,2013-04-01 09:14:00,
2013-04-01 05:19:00,54.2,53.6,29.17,WSW,256,0.0,0.0,98,0.00,CLR,,0.11,WeatherDisplay:10.37,2013-04-01 09:19:00,
2013-04-01 05:24:00,54.2,53.6,29.17,WSW,256,0.0,0.0,98,0.00,CLR,,0.11,WeatherDisplay:10.37,2013-04-01 09:24:00,
2013-04-01 05:29:00,54.2,53.6,29.17,WSW,256,0.0,0.0,98,0.00,CLR,,0.11,WeatherDisplay:10.37,2013-04-01 09:29:00,
2013-04-01 05:34:00,54.2,53.6,29.17,WSW,256,2.3,2.3,98,0.00,CLR,,0.11,WeatherDisplay:10.37,2013-04-01 09:34:00,
2013-04-01 05:39:00,54.4,53.8,29.17,WSW,256,0.0,0.0,98,0.00,CLR,,0.11,WeatherDisplay:10.37,2013-04-01 09:39:00,
2013-04-01 05:44:00,54.4,53.8,29.17,WSW,256,0.0,0.0,98,0.00,CLR,,0.11,WeatherDisplay:10.37,2013-04-01 09:44:00,
2013-04-01 05:49:00,54.2,53.6,29.17,WSW,256,0.0,0.0,98,0.00,CLR,,0.11,WeatherDisplay:10.37,2013-04-01 09:49:00,
2013-04-01 05:54:00,54.2,53.6,29.17,WSW,256,0.0,0.0,98,0.00,CLR,,0.11,WeatherDisplay:10.37,2013-04-01 09:54:00,
2013-04-01 05:59:00,54.4,53.8,29.18,WSW,256,1.1,0.0,98,0.00,CLR,,0.11,WeatherDisplay:10.37,2013-04-01 09:59:00,
2013-04-01 06:04:00,54.2,53.6,29.18,WSW,256,0.0,0.0,98,0.00,CLR,,0.11,WeatherDisplay:10.37,2013-04-01 10:04:00,
2013-04-01 06:10:00,54.2,53.6,29.18,WSW,256,0.0,0.0,98,0.00,CLR,,0.11,WeatherDisplay:10.37,2013-04-01 10:10:00,
2013-04-01 06:15:00,54.4,53.8,29.19,WSW,256,0.0,0.0,98,0.00,CLR,,0.11,WeatherDisplay:10.37,2013-04-01 10:15:00,
2013-04-01 06:20:00,54.4,53.8,29.19,WSW,256,0.0,0.0,98,0.01,RA,,0.12,WeatherDisplay:10.37,2013-04-01 10:20:00,
2013-04-01 06:25:00,54.2,53.6,29.19,WSW,256,0.0,0.0,98,0.01,RA,,0.12,WeatherDisplay:10.37,2013-04-01 10:25:00,
2013-04-01 06:30:00,54.2,53.6,29.19,WSW,256,0.0,0.0,98,0.01,CLR,,0.12,WeatherDisplay:10.37,2013-04-01 10:30:00,
2013-04-01 06:35:00,54.4,53.8,29.19,WSW,256,0.0,0.0,98,0.01,CLR,,0.12,WeatherDisplay:10.37,2013-04-01 10:35:00,
2013-04-01 06:40:00,54.4,53.8,29.19,WSW,256,0.0,0.0,98,0.01,CLR,,0.12,WeatherDisplay:10.37,2013-04-01 10:40:00,
2013-04-01 06:45:00,54.2,53.6,29.20,WSW,256,0.0,0.0,98,0.01,CLR,,0.12,WeatherDisplay:10.37,2013-04-01 10:45:00,
2013-04-01 06:50:00,54.2,53.9,29.20,WSW,256,0.0,0.0,99,0.01,CLR,,0.12,WeatherDisplay:10.37,2013-04-01 10:50:00,
2013-04-01 06:55:00,54.2,53.9,29.20,WSW,256,0.0,0.0,99,0.01,CLR,,0.12,WeatherDisplay:10.37,2013-04-01 10:55:00,
2013-04-01 07:00:00,54.2,53.9,29.20,WSW,256,0.0,0.0,99,0.01,CLR,,0.12,WeatherDisplay:10.37,2013-04-01 11:00:00,
2013-04-01 07:05:00,54.2,53.9,29.20,WSW,256,0.0,0.0,99,0.01,CLR,,0.12,WeatherDisplay:10.37,2013-04-01 11:05:00,
2013-04-01 07:10:00,54.2,53.9,29.20,WSW,256,0.0,0.0,99,0.01,CLR,,0.12,WeatherDisplay:10.37,2013-04-01 11:10:00,
2013-04-01 07:15:00,54.1,53.8,29.20,WSW,256,0.0,0.0,99,0.01,CLR,,0.12,WeatherDisplay:10.37,2013-04-01 11:15:00,
2013-04-01 07:20:00,54.1,53.8,29.20,WSW,256,0.0,0.0,99,0.00,CLR,,0.12,WeatherDisplay:10.37,2013-04-01 11:20:00,
2013-04-01 07:25:00,54.1,53.8,29.20,WSW,256,0.0,0.0,99,0.00,CLR,,0.12,WeatherDisplay:10.37,2013-04-01 11:25:00,
2013-04-01 07:30:00,54.1,53.8,29.21,WSW,256,0.0,0.0,99,0.00,CLR,,0.12,WeatherDisplay:10.37,2013-04-01 11:30:00,
2013-04-01 07:35:00,54.1,53.8,29.21,WSW,256,2.3,2.3,99,0.00,CLR,,0.12,WeatherDisplay:10.37,2013-04-01 11:35:00,
2013-04-01 07:40:00,54.1,53.8,29.21,WSW,256,0.0,0.0,99,0.00,CLR,,0.12,WeatherDisplay:10.37,2013-04-01 11:40:00,
2013-04-01 07:45:00,53.9,53.6,29.22,WSW,256,0.0,0.0,99,0.00,CLR,,0.12,WeatherDisplay:10.37,2013-04-01 11:45:00,
2013-04-01 07:50:00,53.9,53.6,29.22,WSW,256,0.0,0.0,99,0.00,CLR,,0.12,WeatherDisplay:10.37,2013-04-01 11:50:00,
2013-04-01 07:55:00,53.9,53.6,29.22,WSW,256,0.0,0.0,99,0.00,CLR,,0.12,WeatherDisplay:10.37,2013-04-01 11:55:00,
2013-04-01 08:00:00,53.9,53.6,29.22,WSW,256,0.0,0.0,99,0.00,CLR,,0.12,WeatherDisplay:10.37,2013-04-01 12:00:00,
2013-04-01 08:05:00,53.9,53.6,29.22,WSW,256,0.0,0.0,99,0.00,CLR,,0.12,WeatherDisplay:10.37,2013-04-01 12:05:00,
2013-04-01 08:10:00,53.9,53.6,29.22,WSW,256,0.0,0.0,99,0.00,CLR,,0.12,WeatherDisplay:10.37,2013-04-01 12:10:00,
2013-04-01 08:15:00,53.9,53.6,29.22,WSW,256,0.0,0.0,99,0.00,CLR,,0.12,WeatherDisplay:10.37,2013-04-01 12:15:00,
2013-04-01 08:20:00,53.9,53.6,29.22,WSW,257,0.0,0.0,99,0.00,CLR,,0.12,WeatherDisplay:10.37,2013-04-01 12:20:00,
2013-04-01 08:25:00,53.9,53.6,29.22,WSW,257,0.0,0.0,99,0.00,CLR,,0.12,WeatherDisplay:10.37,2013-04-01 12:25:00,
2013-04-01 08:30:00,53.6,53.3,29.22,WSW,257,3.5,3.5,99,0.00,CLR,,0.12,WeatherDisplay:10.37,2013-04-01 12:30:00,
2013-04-01 08:35:00,53.5,52.9,29.22,WSW,257,0.0,0.0,98,0.00,CLR,,0.12,WeatherDisplay:10.37,2013-04-01 12:35:00,
2013-04-01 08:40:00,53.3,52.8,29.22,WSW,257,0.0,0.0,98,0.00,CLR,,0.12,WeatherDisplay:10.37,2013-04-01 12:40:00,
2013-04-01 08:45:00,53.1,52.6,29.22,WSW,257,0.0,0.0,98,0.00,CLR,,0.12,WeatherDisplay:10.37,2013-04-01 12:45:00,
2013-04-01 08:50:00,52.9,52.4,29.22,WSW,257,0.0,0.0,98,0.00,CLR,,0.12,WeatherDisplay:10.37,2013-04-01 12:50:00,
2013-04-01 08:55:00,52.8,52.3,29.22,WSW,257,0.0,0.0,98,0.00,CLR,,0.12,WeatherDisplay:10.37,2013-04-01 12:55:00,
2013-04-01 09:00:00,52.8,52.3,29.22,NNE,13,1.1,1.1,98,0.00,CLR,,0.12,WeatherDisplay:10.37,2013-04-01 13:00:00,
2013-04-01 09:05:00,52.6,51.8,29.22,NNE,13,2.3,0.0,97,0.00,CLR,,0.12,WeatherDisplay:10.37,2013-04-01 13:05:00,
2013-04-01 09:10:00,52.5,51.7,29.22,NNE,13,0.0,0.0,97,0.00,CLR,,0.12,WeatherDisplay:10.37,2013-04-01 13:10:00,
2013-04-01 09:15:00,52.5,51.7,29.22,NNE,13,3.5,3.5,97,0.00,CLR,,0.12,WeatherDisplay:10.37,2013-04-01 13:15:00,
2013-04-01 09:20:00,52.5,51.4,29.22,NNE,13,0.0,0.1,96,0.00,CLR,,0.12,WeatherDisplay:10.37,2013-04-01 13:20:00,
2013-04-01 09:25:00,52.5,51.4,29.22,NNW,347,3.5,3.5,96,0.00,CLR,,0.12,WeatherDisplay:10.37,2013-04-01 13:25:00,
2013-04-01 09:30:00,52.8,51.4,29.22,NNW,347,0.0,0.0,95,0.00,CLR,,0.12,WeatherDisplay:10.37,2013-04-01 13:30:00,
2013-04-01 09:35:00,52.8,50.8,29.22,NNW,346,0.0,0.0,93,0.00,CLR,,0.12,WeatherDisplay:10.37,2013-04-01 13:35:00,
2013-04-01 09:40:00,52.9,50.6,29.22,NW,316,0.0,0.0,92,0.00,CLR,,0.12,WeatherDisplay:10.37,2013-04-01 13:40:00,
2013-04-01 09:45:00,53.2,50.0,29.22,WSW,241,3.5,3.5,89,0.00,CLR,,0.12,WeatherDisplay:10.37,2013-04-01 13:45:00,
2013-04-01 09:50:00,53.3,49.5,29.22,NNW,342,5.8,5.8,87,0.00,CLR,,0.12,WeatherDisplay:10.37,2013-04-01 13:50:00,
2013-04-01 09:55:00,53.5,49.1,29.21,North,0,1.1,1.1,85,0.00,CLR,,0.12,WeatherDisplay:10.37,2013-04-01 13:55:00,
2013-04-01 10:00:00,53.8,48.8,29.21,North,349,2.0,2.0,83,0.00,CLR,,0.12,WeatherDisplay:10.37,2013-04-01 14:00:00,
2013-04-01 10:05:00,54.4,49.0,29.21,North,349,0.0,0.0,82,0.00,CLR,,0.12,WeatherDisplay:10.37,2013-04-01 14:05:00,
2013-04-01 10:11:00,55.0,48.9,29.22,West,274,1.1,1.7,80,0.00,CLR,,0.12,WeatherDisplay:10.37,2013-04-01 14:11:00,
2013-04-01 10:16:00,55.7,48.9,29.22,WNW,295,2.3,2.3,78,0.00,CLR,,0.12,WeatherDisplay:10.37,2013-04-01 14:16:00,
2013-04-01 10:21:00,56.3,47.0,29.22,WSW,253,6.9,6.9,71,0.00,CLR,,0.12,WeatherDisplay:10.37,2013-04-01 14:21:00,
2013-04-01 10:26:00,56.5,45.3,29.22,West,275,8.1,8.1,66,0.00,CLR,,0.12,WeatherDisplay:10.37,2013-04-01 14:26:00,
2013-04-01 10:31:00,56.9,45.7,29.22,WSW,257,3.5,3.5,66,0.00,CLR,,0.12,WeatherDisplay:10.37,2013-04-01 14:31:00,
2013-04-01 10:36:00,57.3,46.0,29.22,WNW,295,2.3,2.3,66,0.00,CLR,,0.12,WeatherDisplay:10.37,2013-04-01 14:36:00,
2013-04-01 10:41:00,57.5,46.6,29.22,NW,304,3.5,3.5,67,0.00,CLR,,0.12,WeatherDisplay:10.37,2013-04-01 14:41:00,
2013-04-01 10:46:00,57.5,46.6,29.22,NW,304,0.0,0.0,67,0.00,CLR,,0.12,WeatherDisplay:10.37,2013-04-01 14:46:00,
2013-04-01 10:51:00,57.6,46.3,29.22,West,264,6.9,6.9,66,0.00,CLR,,0.12,WeatherDisplay:10.37,2013-04-01 14:51:00,
2013-04-01 10:56:00,58.0,46.3,29.22,WNW,294,4.6,4.6,65,0.00,CLR,,0.12,WeatherDisplay:10.37,2013-04-01 14:56:00,
2013-04-01 11:01:00,58.4,44.1,29.22,WSW,248,6.9,6.9,59,0.00,CLR,,0.12,WeatherDisplay:10.37,2013-04-01 15:01:00,
2013-04-01 11:06:00,58.9,45.0,29.22,West,263,5.8,5.8,60,0.00,CLR,,0.12,WeatherDisplay:10.37,2013-04-01 15:06:00,
2013-04-01 11:11:00,59.3,44.5,29.22,North,1,8.1,8.1,58,0.00,CLR,,0.12,WeatherDisplay:10.37,2013-04-01 15:11:00,
2013-04-01 11:17:00,59.9,43.7,29.22,WSW,258,5.8,5.8,55,0.00,CLR,,0.12,WeatherDisplay:10.37,2013-04-01 15:17:00,
2013-04-01 11:22:00,60.4,44.2,29.22,North,354,3.5,3.5,55,0.00,CLR,,0.12,WeatherDisplay:10.37,2013-04-01 15:22:00,
2013-04-01 11:27:00,60.9,43.6,29.22,SW,215,3.5,3.5,53,0.00,CLR,,0.12,WeatherDisplay:10.37,2013-04-01 15:27:00,
2013-04-01 11:32:00,61.3,43.5,29.22,WNW,291,5.0,5.0,52,0.00,CLR,,0.12,WeatherDisplay:10.37,2013-04-01 15:32:00,
2013-04-01 11:37:00,61.2,42.4,29.22,West,275,10.4,10.4,50,0.00,CLR,,0.12,WeatherDisplay:10.37,2013-04-01 15:37:00,
2013-04-01 11:42:00,61.0,43.2,29.22,WNW,298,6.9,6.9,52,0.00,CLR,,0.12,WeatherDisplay:10.37,2013-04-01 15:42:00,
2013-04-01 11:47:00,61.6,44.8,29.22,North,7,2.3,0.0,54,0.00,CLR,,0.12,WeatherDisplay:10.37,2013-04-01 15:47:00,
2013-04-01 11:52:00,62.1,44.3,29.22,North,0,3.0,3.0,52,0.00,CLR,,0.12,WeatherDisplay:10.37,2013-04-01 15:52:00,
2013-04-01 11:57:00,62.1,44.3,29.22,WSW,257,5.8,5.8,52,0.00,CLR,,0.12,WeatherDisplay:10.37,2013-04-01 15:57:00,
2013-04-01 12:02:00,62.6,44.7,29.22,West,264,4.6,4.6,52,0.00,CLR,,0.12,WeatherDisplay:10.37,2013-04-01 16:02:00,
2013-04-01 12:07:00,62.7,44.8,29.22,WSW,248,3.5,3.5,52,0.00,CLR,,0.12,WeatherDisplay:10.37,2013-04-01 16:07:00,
2013-04-01 12:12:00,62.7,44.3,29.21,West,261,0.0,1.4,51,0.00,CLR,,0.12,WeatherDisplay:10.37,2013-04-01 16:12:00,
2013-04-01 12:17:00,62.7,43.8,29.21,SW,230,3.5,3.5,50,0.00,CLR,,0.12,WeatherDisplay:10.37,2013-04-01 16:17:00,
2013-04-01 12:22:00,63.1,42.0,29.21,West,263,3.5,3.5,46,0.00,CLR,,0.12,WeatherDisplay:10.37,2013-04-01 16:22:00,
2013-04-01 12:27:00,63.9,43.3,29.20,West,274,4.6,4.6,47,0.00,CLR,,0.12,WeatherDisplay:10.37,2013-04-01 16:27:00,
2013-04-01 12:33:00,63.7,43.6,29.20,WNW,298,4.6,4.6,48,0.00,CLR,,0.12,WeatherDisplay:10.37,2013-04-01 16:33:00,
2013-04-01 12:38:00,63.9,42.1,29.20,North,0,4.6,4.6,45,0.00,CLR,,0.12,WeatherDisplay:10.37,2013-04-01 16:38:00,
2013-04-01 12:43:00,64.5,42.7,29.20,WSW,253,8.1,8.1,45,0.00,CLR,,0.12,WeatherDisplay:10.37,2013-04-01 16:43:00,
2013-04-01 12:48:00,64.3,42.5,29.20,SW,217,10.4,10.4,45,0.00,CLR,,0.12,WeatherDisplay:10.37,2013-04-01 16:48:00,
2013-04-01 12:53:00,64.7,43.4,29.20,WNW,299,6.9,6.9,46,0.00,CLR,,0.12,WeatherDisplay:10.37,2013-04-01 16:53:00,
2013-04-01 12:58:00,64.8,43.5,29.20,North,4,3.5,3.5,46,0.00,CLR,,0.12,WeatherDisplay:10.37,2013-04-01 16:58:00,
2013-04-01 13:03:00,65.0,43.1,29.20,WSW,251,11.5,11.5,45,0.00,CLR,,0.12,WeatherDisplay:10.37,2013-04-01 17:03:00,
2013-04-01 13:08:00,65.0,43.1,29.20,North,350,6.9,6.9,45,0.00,CLR,,0.12,WeatherDisplay:10.37,2013-04-01 17:08:00,
2013-04-01 13:13:00,65.2,43.9,29.20,West,281,11.5,11.5,46,0.00,CLR,,0.12,WeatherDisplay:10.37,2013-04-01 17:13:00,
2013-04-01 13:18:00,65.5,43.0,29.20,WSW,250,8.1,8.1,44,0.00,CLR,,0.12,WeatherDisplay:10.37,2013-04-01 17:18:00,
2013-04-01 13:23:00,65.6,45.4,29.20,West,261,0.0,0.0,48,0.00,CLR,,0.12,WeatherDisplay:10.37,2013-04-01 17:23:00,
2013-04-01 13:28:00,66.1,42.9,29.19,West,278,8.1,8.1,43,0.00,CLR,,0.12,WeatherDisplay:10.37,2013-04-01 17:28:00,
2013-04-01 13:33:00,66.3,42.5,29.19,WSW,248,4.6,4.6,42,0.00,CLR,,0.12,WeatherDisplay:10.37,2013-04-01 17:33:00,
2013-04-01 13:38:00,66.6,43.4,29.19,SSW,199,13.8,13.8,43,0.00,CLR,,0.12,WeatherDisplay:10.37,2013-04-01 17:38:00,
2013-04-01 13:43:00,66.6,42.8,29.18,WNW,285,6.9,6.9,42,0.00,CLR,,0.12,WeatherDisplay:10.37,2013-04-01 17:43:00,
2013-04-01 13:48:00,66.6,44.0,29.18,WSW,247,9.2,9.2,44,0.00,CLR,,0.12,WeatherDisplay:10.37,2013-04-01 17:48:00,
2013-04-01 13:53:00,66.8,43.0,29.18,North,357,8.1,8.1,42,0.00,CLR,,0.12,WeatherDisplay:10.37,2013-04-01 17:53:00,
2013-04-01 13:58:00,67.1,42.0,29.18,WSW,258,11.5,11.5,40,0.00,CLR,,0.12,WeatherDisplay:10.37,2013-04-01 17:58:00,
2013-04-01 14:03:00,66.9,41.8,29.18,West,263,11.5,11.5,40,0.00,CLR,,0.12,WeatherDisplay:10.37,2013-04-01 18:03:00,
2013-04-01 14:08:00,67.3,41.5,29.18,SW,234,10.4,10.4,39,0.00,CLR,,0.12,WeatherDisplay:10.37,2013-04-01 18:08:00,
2013-04-01 14:13:00,67.6,41.1,29.17,SW,233,8.1,8.1,38,0.00,CLR,,0.12,WeatherDisplay:10.37,2013-04-01 18:13:00,
2013-04-01 14:18:00,68.1,40.8,29.17,WNW,302,5.8,5.8,37,0.00,CLR,,0.12,WeatherDisplay:10.37,2013-04-01 18:18:00,
2013-04-01 14:23:00,68.6,40.6,29.17,SW,232,11.5,11.5,36,0.00,CLR,,0.12,WeatherDisplay:10.37,2013-04-01 18:23:00,
2013-04-01 14:28:00,68.1,40.8,29.17,SW,215,11.5,11.5,37,0.00,CLR,,0.12,WeatherDisplay:10.37,2013-04-01 18:28:00,
2013-04-01 14:33:00,68.1,39.4,29.17,West,260,7.0,7.0,35,0.00,CLR,,0.12,WeatherDisplay:10.37,2013-04-01 18:33:00,
2013-04-01 14:38:00,68.6,39.8,29.17,SW,229,13.8,13.8,35,0.00,CLR,,0.12,WeatherDisplay:10.37,2013-04-01 18:38:00,
2013-04-01 14:43:00,68.8,39.3,29.16,WNW,288,21.9,21.9,34,0.00,CLR,,0.12,WeatherDisplay:10.37,2013-04-01 18:43:00,
2013-04-01 14:48:00,68.9,39.4,29.16,SW,215,9.2,9.2,34,0.00,CLR,,0.12,WeatherDisplay:10.37,2013-04-01 18:48:00,
2013-04-01 14:53:00,69.3,38.2,29.16,West,278,12.7,12.7,32,0.00,CLR,,0.12,WeatherDisplay:10.37,2013-04-01 18:53:00,
2013-04-01 14:58:00,69.6,37.6,29.15,WNW,284,18.4,18.4,31,0.00,CLR,,0.12,WeatherDisplay:10.37,2013-04-01 18:58:00,
2013-04-01 15:03:00,69.9,36.2,29.15,NE,37,13.8,13.8,29,0.00,CLR,,0.12,WeatherDisplay:10.37,2013-04-01 19:03:00,
2013-04-01 15:08:00,69.9,36.2,29.15,WSW,246,12.7,12.7,29,0.00,CLR,,0.12,WeatherDisplay:10.37,2013-04-01 19:08:00,
2013-04-01 15:13:00,69.6,37.6,29.15,West,267,19.6,19.6,31,0.00,CLR,,0.12,WeatherDisplay:10.37,2013-04-01 19:13:00,
2013-04-01 15:18:00,69.9,36.2,29.15,WNW,284,11.5,11.5,29,0.00,CLR,,0.12,WeatherDisplay:10.37,2013-04-01 19:18:00,
2013-04-01 15:23:00,70.4,38.3,29.15,SSW,196,8.0,8.0,31,0.00,CLR,,0.12,WeatherDisplay:10.37,2013-04-01 19:23:00,
2013-04-01 15:28:00,70.4,34.8,29.15,WNW,301,17.3,17.3,27,0.00,CLR,,0.12,WeatherDisplay:10.37,2013-04-01 19:28:00,
2013-04-01 15:33:00,69.9,36.2,29.15,NW,309,13.8,13.8,29,0.00,CLR,,0.12,WeatherDisplay:10.37,2013-04-01 19:33:00,
2013-04-01 15:38:00,69.8,36.9,29.15,WNW,287,8.1,8.7,30,0.00,CLR,,0.12,WeatherDisplay:10.37,2013-04-01 19:38:00,
2013-04-01 15:43:00,69.4,35.7,29.15,SW,215,16.1,16.1,29,0.00,CLR,,0.12,WeatherDisplay:10.37,2013-04-01 19:43:00,
2013-04-01 15:48:00,69.6,35.9,29.15,West,268,11.5,11.5,29,0.00,CLR,,0.12,WeatherDisplay:10.37,2013-04-01 19:48:00,
2013-04-01 15:53:00,69.8,35.2,29.15,North,0,11.5,11.5,28,0.00,CLR,,0.12,WeatherDisplay:10.37,2013-04-01 19:53:00,
2013-04-01 15:58:00,69.6,36.8,29.15,SSW,210,10.4,10.4,30,0.00,CLR,,0.12,WeatherDisplay:10.37,2013-04-01 19:58:00,
2013-04-01 16:03:00,69.3,37.3,29.15,West,270,4.6,4.6,31,0.00,CLR,,0.12,WeatherDisplay:10.37,2013-04-01 20:03:00,
2013-04-01 16:08:00,69.1,37.2,29.15,NW,312,11.5,11.5,31,0.00,CLR,,0.12,WeatherDisplay:10.37,2013-04-01 20:08:00,
2013-04-01 16:13:00,68.8,36.1,29.15,NW,306,10.4,10.4,30,0.00,CLR,,0.12,WeatherDisplay:10.37,2013-04-01 20:13:00,
2013-04-01 16:18:00,68.6,38.3,29.15,WNW,302,4.6,4.7,33,0.00,CLR,,0.12,WeatherDisplay:10.37,2013-04-01 20:18:00,
2013-04-01 16:23:00,68.9,37.8,29.15,WNW,296,10.4,10.4,32,0.00,CLR,,0.12,WeatherDisplay:10.37,2013-04-01 20:23:00,
2013-04-01 16:29:00,69.4,37.4,29.15,WNW,296,17.3,17.3,31,0.00,CLR,,0.12,WeatherDisplay:10.37,2013-04-01 20:29:00,
2013-04-01 16:34:00,69.8,40.2,29.15,WSW,240,8.1,8.1,34,0.00,CLR,,0.12,WeatherDisplay:10.37,2013-04-01 20:34:00,
2013-04-01 16:39:00,69.9,36.2,29.15,WSW,256,11.5,11.5,29,0.00,CLR,,0.12,WeatherDisplay:10.37,2013-04-01 20:39:00,
2013-04-01 16:44:00,69.3,36.5,29.15,North,6,10.4,10.4,30,0.00,CLR,,0.12,WeatherDisplay:10.37,2013-04-01 20:44:00,
2013-04-01 16:49:00,68.8,36.9,29.15,SW,236,11.5,11.5,31,0.00,CLR,,0.12,WeatherDisplay:10.37,2013-04-01 20:49:00,
2013-04-01 16:54:00,68.8,37.7,29.15,WSW,256,6.9,6.9,32,0.00,CLR,,0.12,WeatherDisplay:10.37,2013-04-01 20:54:00,
2013-04-01 16:59:00,68.6,36.7,29.15,WSW,251,12.7,12.7,31,0.00,CLR,,0.12,WeatherDisplay:10.37,2013-04-01 20:59:00,
2013-04-01 17:04:00,68.4,36.6,29.15,WNW,289,11.5,11.5,31,0.00,CLR,,0.12,WeatherDisplay:10.37,2013-04-01 21:04:00,
2013-04-01 17:09:00,68.6,35.1,29.15,WNW,284,11.5,11.5,29,0.00,CLR,,0.12,WeatherDisplay:10.37,2013-04-01 21:09:00,
2013-04-01 17:14:00,69.1,35.5,29.15,WSW,258,12.7,12.7,29,0.00,CLR,,0.12,WeatherDisplay:10.37,2013-04-01 21:14:00,
2013-04-01 17:19:00,69.6,35.0,29.15,West,267,12.7,12.7,28,0.00,CLR,,0.12,WeatherDisplay:10.37,2013-04-01 21:19:00,
2013-04-01 17:24:00,69.3,34.8,29.15,WNW,289,14.0,14.0,28,0.00,CLR,,0.12,WeatherDisplay:10.37,2013-04-01 21:24:00,
2013-04-01 17:29:00,68.8,35.2,29.15,West,280,19.6,19.6,29,0.00,CLR,,0.12,WeatherDisplay:10.37,2013-04-01 21:29:00,
2013-04-01 17:34:00,68.4,35.7,29.15,SW,226,7.0,7.0,30,0.00,CLR,,0.12,WeatherDisplay:10.37,2013-04-01 21:34:00,
2013-04-01 17:39:00,68.3,35.6,29.15,West,280,6.9,6.9,30,0.00,CLR,,0.12,WeatherDisplay:10.37,2013-04-01 21:39:00,
2013-04-01 17:44:00,68.6,35.1,29.15,NNW,346,13.8,13.8,29,0.00,CLR,,0.12,WeatherDisplay:10.37,2013-04-01 21:44:00,
2013-04-01 17:49:00,69.3,35.7,29.15,West,263,9.2,9.2,29,0.00,CLR,,0.12,WeatherDisplay:10.37,2013-04-01 21:49:00,
2013-04-01 17:54:00,69.4,37.4,29.15,WSW,240,6.9,6.9,31,0.00,CLR,,0.12,WeatherDisplay:10.37,2013-04-01 21:54:00,
2013-04-01 17:59:00,68.9,36.2,29.16,WNW,296,13.8,13.8,30,0.00,CLR,,0.12,WeatherDisplay:10.37,2013-04-01 21:59:00,
2013-04-01 18:04:00,68.4,36.6,29.16,NW,320,6.9,6.9,31,0.00,CLR,,0.12,WeatherDisplay:10.37,2013-04-01 22:04:00,
2013-04-01 18:09:00,67.9,36.1,29.16,WNW,289,10.4,10.4,31,0.00,CLR,,0.12,WeatherDisplay:10.37,2013-04-01 22:09:00,
2013-04-01 18:14:00,67.8,36.8,29.16,NNE,23,3.5,3.5,32,0.00,CLR,,0.12,WeatherDisplay:10.37,2013-04-01 22:14:00,
2013-04-01 18:19:00,67.6,37.5,29.16,North,0,12.7,12.7,33,0.00,CLR,,0.12,WeatherDisplay:10.37,2013-04-01 22:19:00,
2013-04-01 18:24:00,67.3,38.0,29.16,North,359,11.5,11.5,34,0.00,CLR,,0.12,WeatherDisplay:10.37,2013-04-01 22:24:00,
2013-04-01 18:29:00,67.1,37.0,29.17,North,1,1.1,2.2,33,0.00,CLR,,0.12,WeatherDisplay:10.37,2013-04-01 22:29:00,
2013-04-01 18:34:00,66.9,38.3,29.17,NW,316,3.5,3.5,35,0.00,CLR,,0.12,WeatherDisplay:10.37,2013-04-01 22:34:00,
2013-04-01 18:39:00,66.9,37.6,29.17,NNE,14,4.6,4.6,34,0.00,CLR,,0.12,WeatherDisplay:10.37,2013-04-01 22:39:00,
2013-04-01 18:44:00,66.8,38.3,29.18,West,277,8.1,8.1,35,0.00,CLR,,0.12,WeatherDisplay:10.37,2013-04-01 22:44:00,
2013-04-01 18:49:00,66.4,37.9,29.18,North,0,3.5,3.5,35,0.00,CLR,,0.12,WeatherDisplay:10.37,2013-04-01 22:49:00,
2013-04-01 18:54:00,66.1,37.6,29.18,NW,312,10.4,10.4,35,0.00,CLR,,0.12,WeatherDisplay:10.37,2013-04-01 22:54:00,
2013-04-01 18:59:00,65.8,38.1,29.18,North,0,5.8,5.8,36,0.00,CLR,,0.12,WeatherDisplay:10.37,2013-04-01 22:59:00,
2013-04-01 19:04:00,65.5,38.5,29.18,North,357,6.9,6.9,37,0.00,CLR,,0.12,WeatherDisplay:10.37,2013-04-01 23:04:00,
2013-04-01 19:09:00,65.2,38.9,29.18,North,350,3.5,3.5,38,0.00,CLR,,0.12,WeatherDisplay:10.37,2013-04-01 23:09:00,
2013-04-01 19:14:00,64.8,38.6,29.19,North,1,4.6,4.6,38,0.00,CLR,,0.12,WeatherDisplay:10.37,2013-04-01 23:14:00,
2013-04-01 19:19:00,64.5,39.0,29.19,WNW,296,3.5,3.5,39,0.00,CLR,,0.12,WeatherDisplay:10.37,2013-04-01 23:19:00,
2013-04-01 19:24:00,64.2,38.7,29.19,WNW,299,3.5,3.5,39,0.00,CLR,,0.12,WeatherDisplay:10.37,2013-04-01 23:24:00,
2013-04-01 19:29:00,63.9,39.1,29.20,North,0,2.3,2.3,40,0.00,CLR,,0.12,WeatherDisplay:10.37,2013-04-01 23:29:00,
2013-04-01 19:34:00,63.7,39.5,29.20,North,0,0.0,0.0,41,0.00,CLR,,0.12,WeatherDisplay:10.37,2013-04-01 23:34:00,
2013-04-01 19:39:00,63.4,39.3,29.20,NW,319,6.9,6.9,41,0.00,CLR,,0.12,WeatherDisplay:10.37,2013-04-01 23:39:00,
2013-04-01 19:44:00,63.1,39.6,29.20,NW,325,0.0,0.0,42,0.00,CLR,,0.12,WeatherDisplay:10.37,2013-04-01 23:44:00,
2013-04-01 19:49:00,62.7,39.9,29.20,North,359,0.0,0.0,43,0.00,CLR,,0.12,WeatherDisplay:10.37,2013-04-01 23:49:00,
2013-04-01 19:54:00,62.4,40.2,29.20,North,359,0.0,0.0,44,0.00,CLR,,0.12,WeatherDisplay:10.37,2013-04-01 23:54:00,
2013-04-01 19:59:00,62.0,39.8,29.20,North,359,2.3,2.3,44,0.00,CLR,,0.12,WeatherDisplay:10.37,2013-04-01 23:59:00,
2013-04-01 20:04:00,61.6,40.0,29.20,North,349,1.1,0.0,45,0.00,CLR,,0.12,WeatherDisplay:10.37,2013-04-02 00:04:00,
2013-04-01 20:09:00,61.3,39.8,29.20,North,349,0.0,0.0,45,0.00,CLR,,0.12,WeatherDisplay:10.37,2013-04-02 00:09:00,
2013-04-01 20:14:00,61.0,39.5,29.20,North,349,1.1,1.1,45,0.00,CLR,,0.12,WeatherDisplay:10.37,2013-04-02 00:14:00,
2013-04-01 20:19:00,60.7,39.8,29.20,North,0,4.6,4.6,46,0.00,CLR,,0.12,WeatherDisplay:10.37,2013-04-02 00:19:00,
2013-04-01 20:24:00,60.4,40.1,29.20,NNW,336,2.0,2.0,47,0.00,CLR,,0.12,WeatherDisplay:10.37,2013-04-02 00:24:00,
2013-04-01 20:29:00,60.4,39.5,29.21,North,359,3.5,3.5,46,0.00,CLR,,0.12,WeatherDisplay:10.37,2013-04-02 00:29:00,
2013-04-01 20:34:00,60.4,39.5,29.21,North,349,3.5,3.5,46,0.00,CLR,,0.12,WeatherDisplay:10.37,2013-04-02 00:34:00,
2013-04-01 20:39:00,60.2,39.3,29.21,NW,306,4.6,4.6,46,0.00,CLR,,0.12,WeatherDisplay:10.37,2013-04-02 00:39:00,
2013-04-01 20:44:00,60.1,39.8,29.22,North,359,0.0,0.1,47,0.00,CLR,,0.12,WeatherDisplay:10.37,2013-04-02 00:44:00,
2013-04-01 20:49:00,59.9,39.1,29.22,North,357,5.8,5.8,46,0.00,CLR,,0.12,WeatherDisplay:10.37,2013-04-02 00:49:00,
2013-04-01 20:54:00,59.8,39.5,29.22,North,0,2.3,2.3,47,0.00,CLR,,0.12,WeatherDisplay:10.37,2013-04-02 00:54:00,
2013-04-01 20:59:00,59.6,39.3,29.22,North,0,2.3,2.3,47,0.00,CLR,,0.12,WeatherDisplay:10.37,2013-04-02 00:59:00,
2013-04-01 21:04:00,59.5,39.2,29.22,North,359,4.6,4.6,47,0.00,CLR,,0.12,WeatherDisplay:10.37,2013-04-02 01:04:00,
2013-04-01 21:09:00,59.2,39.0,29.22,North,11,3.5,3.5,47,0.00,CLR,,0.12,WeatherDisplay:10.37,2013-04-02 01:09:00,
2013-04-01 21:14:00,59.0,38.8,29.22,North,1,1.1,0.0,47,0.00,CLR,,0.12,WeatherDisplay:10.37,2013-04-02 01:14:00,
2013-04-01 21:19:00,58.9,39.2,29.22,North,1,0.0,0.0,48,0.00,CLR,,0.12,WeatherDisplay:10.37,2013-04-02 01:19:00,
2013-04-01 21:24:00,58.6,39.0,29.22,North,0,1.1,1.1,48,0.00,CLR,,0.12,WeatherDisplay:10.37,2013-04-02 01:24:00,
2013-04-01 21:29:00,58.4,39.3,29.23,North,0,0.0,0.1,49,0.00,CLR,,0.12,WeatherDisplay:10.37,2013-04-02 01:29:00,
2013-04-01 21:34:00,58.3,39.2,29.23,NNW,343,3.5,3.5,49,0.00,CLR,,0.12,WeatherDisplay:10.37,2013-04-02 01:34:00,
2013-04-01 21:39:00,58.1,39.0,29.23,North,0,4.6,4.6,49,0.00,CLR,,0.12,WeatherDisplay:10.37,2013-04-02 01:39:00,
2013-04-01 21:44:00,58.0,38.9,29.24,North,350,0.0,1.5,49,0.00,CLR,,0.12,WeatherDisplay:10.37,2013-04-02 01:44:00,
2013-04-01 21:49:00,58.1,38.0,29.24,North,0,6.9,6.9,47,0.00,CLR,,0.12,WeatherDisplay:10.37,2013-04-02 01:49:00,
2013-04-01 21:54:00,58.3,38.1,29.24,NNW,343,3.5,3.5,47,0.00,CLR,,0.12,WeatherDisplay:10.37,2013-04-02 01:54:00,
2013-04-01 21:59:00,58.1,38.5,29.25,North,8,3.5,3.5,48,0.00,CLR,,0.12,WeatherDisplay:10.37,2013-04-02 01:59:00,
2013-04-01 22:04:00,58.0,38.9,29.25,North,4,3.5,0.0,49,0.00,CLR,,0.12,WeatherDisplay:10.37,2013-04-02 02:04:00,
2013-04-01 22:09:00,57.5,39.0,29.25,North,4,1.1,1.1,50,0.00,CLR,,0.12,WeatherDisplay:10.37,2013-04-02 02:09:00,
2013-04-01 22:14:00,57.0,39.0,29.26,NE,44,0.0,0.0,51,0.00,CLR,,0.12,WeatherDisplay:10.37,2013-04-02 02:14:00,
2013-04-01 22:19:00,56.7,38.3,29.26,North,6,1.1,1.1,50,0.00,CLR,,0.12,WeatherDisplay:10.37,2013-04-02 02:19:00,
2013-04-01 22:24:00,56.6,38.2,29.26,North,0,0.0,0.0,50,0.00,CLR,,0.12,WeatherDisplay:10.37,2013-04-02 02:24:00,
2013-04-01 22:29:00,56.5,37.6,29.26,North,356,8.1,8.1,49,0.00,CLR,,0.12,WeatherDisplay:10.37,2013-04-02 02:29:00,
2013-04-01 22:34:00,56.5,37.0,29.26,North,354,6.0,7.2,48,0.00,CLR,,0.12,WeatherDisplay:10.37,2013-04-02 02:34:00,
2013-04-01 22:40:00,56.7,36.7,29.26,North,353,11.5,11.5,47,0.00,CLR,,0.12,WeatherDisplay:10.37,2013-04-02 02:40:00,
2013-04-01 22:45:00,56.5,36.5,29.27,NNE,31,11.5,11.5,47,0.00,CLR,,0.12,WeatherDisplay:10.37,2013-04-02 02:45:00,
2013-04-01 22:50:00,56.2,36.2,29.27,North,8,6.9,7.0,47,0.00,CLR,,0.12,WeatherDisplay:10.37,2013-04-02 02:50:00,
2013-04-01 22:55:00,55.9,35.9,29.27,NE,34,10.4,10.4,47,0.00,CLR,,0.12,WeatherDisplay:10.37,2013-04-02 02:55:00,
2013-04-01 23:00:00,55.6,35.7,29.28,North,10,12.7,12.7,47,0.00,CLR,,0.12,WeatherDisplay:10.37,2013-04-02 03:00:00,
2013-04-01 23:05:00,55.0,35.1,29.28,NNE,25,13.8,13.8,47,0.00,CLR,,0.12,WeatherDisplay:10.37,2013-04-02 03:05:00,
2013-04-01 23:10:00,54.2,34.4,29.28,North,350,10.4,10.4,47,0.00,CLR,,0.12,WeatherDisplay:10.37,2013-04-02 03:10:00,
2013-04-01 23:15:00,53.5,33.7,29.29,NNE,27,16.1,16.1,47,0.00,CLR,,0.12,WeatherDisplay:10.37,2013-04-02 03:15:00,
2013-04-01 23:20:00,52.9,33.2,29.29,North,8,24.2,24.2,47,0.00,CLR,,0.12,WeatherDisplay:10.37,2013-04-02 03:20:00,
2013-04-01 23:25:00,52.2,33.1,29.29,North,1,16.1,16.1,48,0.00,CLR,,0.12,WeatherDisplay:10.37,2013-04-02 03:25:00,
2013-04-01 23:30:00,51.7,33.1,29.31,NNW,337,10.4,10.4,49,0.00,CLR,,0.12,WeatherDisplay:10.37,2013-04-02 03:30:00,
2013-04-01 23:35:00,51.0,32.0,29.31,ENE,71,11.5,11.5,48,0.00,CLR,,0.12,WeatherDisplay:10.37,2013-04-02 03:35:00,
2013-04-01 23:40:00,50.5,31.5,29.31,North,0,16.1,16.1,48,0.00,CLR,,0.12,WeatherDisplay:10.37,2013-04-02 03:40:00,
2013-04-01 23:45:00,50.4,31.9,29.32,NE,56,10.4,10.4,49,0.00,CLR,,0.12,WeatherDisplay:10.37,2013-04-02 03:45:00,
2013-04-01 23:50:00,50.1,31.7,29.32,North,356,18.4,18.4,49,0.00,CLR,,0.12,WeatherDisplay:10.37,2013-04-02 03:50:00,
2013-04-01 23:55:00,49.9,31.5,29.32,North,6,8.1,8.1,49,0.00,CLR,,0.12,WeatherDisplay:10.37,2013-04-02 03:55:00,